Northolt, United Kingdom

10:18 PM BST on April 30, 2017 (GMT +0100)
Northolt Air Base

Weather History for EGWU - April, 2013

Change the Weather History Date:

Thursday, April 11, 2013

  Actual Average Record
Temperature  
Mean Temperature 48 °F -  
Max Temperature 55 °F 58 °F 68 °F (2011)
Min Temperature 42 °F 43 °F 30 °F (2003)
Degree Days  
Heating Degree Days 16    
Moisture  
Dew Point 42 °F    
Average Humidity 81    
Maximum Humidity 93    
Minimum Humidity 49    
Precipitation  
Precipitation 0.01 in - - ()
Sea Level Pressure  
Sea Level Pressure 29.43 in    
Wind  
Wind Speed 9 mph ()    
Max Wind Speed 16 mph    
Max Gust Speed -    
Visibility 5.3 miles    
Events Rain    
Averages and records for this station are not official NWS values.
T = Trace of Precipitation, MM = Missing Value Source: Averaged Metar Reports

Daily Weather History Graph

Daily Weather History Graph

Search for Another Location

Airport or City:

Trip Planner

Search our weather history database for the weather conditions in past years. The results will help you decide how hot, cold, wet, or windy it might be!

Date:

Astronomy

Apr. 11, 2013 Rise Set
Actual Time 6:14 AM BST 7:51 PM BST
Civil Twilight 5:39 AM BST 8:27 PM BST
Nautical Twilight 4:56 AM BST 9:10 PM BST
Astronomical Twilight 4:09 AM BST 9:58 PM BST
Moon 6:28 AM BST (4/11) 9:24 PM BST (4/11)
Length of Visible Light 14h 47m
Length of Day
13h 37m
New Moon, 1% of the Moon is Illuminated
Apr 11
New Moon
Apr 18
First Quarter
Apr 25
Full
May 2
Last Quarter
May 10
New

Hourly Weather History & Observations

Time (BST) Temp. Windchill Dew Point Humidity Pressure Visibility Wind Dir Wind Speed Gust Speed Precip Events Conditions
12:50 AM 44 °F - 41 °F 87% 29.42 in 2 mi ENE 15.0 mph - -   Mostly Cloudy
12:50 AM 44.6 °F 37.8 °F 41.0 °F 87% 29.42 in 1.8 mi ENE 15.0 mph - N/A   Mostly Cloudy
1:50 AM 44.6 °F 38.4 °F 41.0 °F 87% 29.39 in - East 12.7 mph - N/A   Overcast
2:50 AM 42.8 °F 35.1 °F 41.0 °F 93% 29.36 in 3.7 mi East 16.1 mph - N/A   Overcast
3:50 AM 44 °F - 41 °F 83% 29.38 in 4 mi East 12.7 mph - -   Overcast
3:50 AM 42.8 °F 36.2 °F 41.0 °F 93% 29.36 in 4.3 mi East 12.7 mph - N/A   Overcast
4:50 AM 42.8 °F 36.6 °F 41.0 °F 93% 29.36 in 3.1 mi ENE 11.5 mph - N/A   Overcast
5:50 AM 42.8 °F 36.2 °F 39.2 °F 87% 29.39 in 6.2 mi ENE 12.7 mph - N/A   Overcast
6:50 AM 43 °F - 39 °F 82% 29.41 in 2 mi NE 11.5 mph - - Rain Light Rain
6:50 AM 42.8 °F 36.6 °F 39.2 °F 87% 29.39 in 2.5 mi NE 11.5 mph - N/A Rain Light Rain
7:50 AM 42.8 °F 38.0 °F 39.2 °F 87% 29.44 in 2.2 mi NE 8.1 mph - N/A Rain Light Rain
8:50 AM 42.8 °F 39.3 °F 39.2 °F 87% 29.44 in 1.6 mi NE 5.8 mph - N/A Rain Light Rain
9:50 AM 43 °F - 40 °F 86% 29.49 in 2 mi ENE 5.8 mph - - Rain Light Rain
9:50 AM 42.8 °F 39.3 °F 41.0 °F 93% 29.47 in - ENE 5.8 mph - N/A Rain Light Rain
10:50 AM 42.8 °F 40.1 °F 39.2 °F 87% 29.47 in 3.1 mi East 4.6 mph - N/A   Haze
11:50 AM 44.6 °F 41.4 °F 41.0 °F 87% 29.50 in 4.3 mi SE 5.8 mph - N/A   Haze
12:50 PM 46 °F - 41 °F 78% 29.50 in 4 mi SSE 4.6 mph - -   Haze
12:50 PM 46.4 °F 44.3 °F 41.0 °F 81% 29.47 in 3.7 mi SSE 4.6 mph - N/A   Haze
1:50 PM 46.4 °F 45.2 °F 42.8 °F 87% 29.47 in 4.3 mi SSE 3.5 mph - N/A   Haze
2:50 PM 50.0 °F - 42.8 °F 76% 29.47 in 6.2 mi SSE 4.6 mph - N/A   Overcast
3:50 PM 52 °F - 44 °F 66% 29.47 in 6 mi SSE 5.8 mph - -   Mostly Cloudy
3:50 PM 51.8 °F - 44.6 °F 76% 29.44 in 6.2 mi SSE 5.8 mph - N/A   Mostly Cloudy
4:51 PM 51.8 °F - 44.6 °F 76% 29.44 in 6.2 mi SE 5.8 mph - N/A   Mostly Cloudy
5:50 PM 55.4 °F - 44.6 °F 67% 29.42 in 6.2 mi SE 4.6 mph - N/A   Mostly Cloudy
6:50 PM 54 °F - 40 °F 49% 29.44 in 19 mi SSW 10.4 mph - -   Mostly Cloudy
6:50 PM 53.6 °F - 41.0 °F 62% 29.42 in 6.2 mi SSW 10.4 mph - N/A   Mostly Cloudy
7:50 PM 51.8 °F - 42.8 °F 71% 29.42 in 6.2 mi SW 9.2 mph - N/A   Mostly Cloudy
8:50 PM 50.0 °F - 42.8 °F 76% 29.44 in 6.2 mi SW 10.4 mph - N/A   Scattered Clouds
9:50 PM 48 °F - 43 °F 75% 29.45 in 16 mi SSW 9.2 mph - -  
9:50 PM 48.2 °F - 42.8 °F 82% 29.44 in 6.2 mi SSW 9.2 mph - N/A   Unknown
10:50 PM 46.4 °F 42.9 °F 42.8 °F 87% 29.44 in 6.2 mi South 6.9 mph - N/A   Unknown
11:50 PM 48.2 °F - 44.6 °F 87% 29.42 in 6.2 mi South 5.8 mph - N/A   Scattered Clouds